Regional Weather Roundup
Issued by NWS

Home | Current Version | Previous Version | Text Only | Print | Product List | Glossary Off
Versions: 1 2 3 4 5 6 7 8 9 10 11 12 13 14 15 16 17 18 19 20 21 22 23 24 25 26 27 28 29 30 31 32 33 34 35 36 37 38 39 40 41 42 43 44 45 46 47 48 49 50

000
ASUS43 KBIS 230159
RWRND

NORTH DAKOTA REGIONAL WEATHER ROUNDUP
NATIONAL WEATHER SERVICE BISMARCK ND
800 PM CST MON DEC 22 2014

NOTE: "FAIR" INDICATES FEW OR NO CLOUDS BELOW 12,000 FEET WITH NO
SIGNIFICANT WEATHER AND/OR OBSTRUCTIONS TO VISIBILITY.


NDZ001>003-009>011-017-230300-
NORTHWEST NORTH DAKOTA

CITY           SKY/WX    TMP DP  RH WIND       PRES   REMARKS
WILLISTON      CLOUDY    27  23  85 N17       29.84R WCI  14
MINOT          CLOUDY    29  27  92 NW16      29.76R FOG     WCI  17
$$

NDZ018>021-031>035-040>046-230300-
SOUTHWEST NORTH DAKOTA

CITY           SKY/WX    TMP DP  RH WIND       PRES   REMARKS
BISMARCK       LGT SNOW  30  28  92 N16       29.69R FOG     WCI  19
DICKINSON      LGT SNOW  25  19  80 NW22      29.73R WCI  10
GARRISON         N/A     28  27  96 N17       29.73R WCI  16
HETTINGER ARPT LGT SNOW  24  20  84 NW18G29   29.72R FOG     WCI  10
$$

NDZ004>008-012>016-024-026-027-054-230300-
NORTHEAST NORTH DAKOTA

CITY           SKY/WX    TMP DP  RH WIND       PRES   REMARKS
GRAND FORKS    DRIZZLE   35  35 100 NE6       29.68R
GRND FRKS AFB  CLOUDY    36  36 100 NE7       29.69R
DEVILS LAKE    CLOUDY    34  30  86 NE12      29.69R
$$

NDZ022-023-025-028>030-036>039-047>053-230300-
SOUTHEAST NORTH DAKOTA

CITY           SKY/WX    TMP DP  RH WIND       PRES   REMARKS
FARGO          LGT RAIN  37  34  89 E9        29.64R
JAMESTOWN      LGT RAIN  34  34 100 NE10      29.61R FOG
$$



USA.gov is the U.S. government's official web portal to all federal, state and local government web resources and services.